Location: Baia Mare
(47.6567°N, 23.5850°E)
Time: 18:56:33
(UTC+03:00)

ISS - Pass Details

Date: 23 May 2018
Orbit: 402 x 407 km, 51.6° (Epoch: 23 May)

Event Time Altitude Azimuth Distance (km) Brightness Sun altitude
Rises 04:51:16 0° 283° (WNW) 2,318 -0.3 -7.3°
Reaches altitude 10° 04:54:14 10° 253° (WSW) 1,454 -1.6 -6.9°
Maximum altitude 04:55:45 13° 225° (SW) 1,300 -1.9 -6.7°
Drops below altitude 10° 04:57:15 10° 198° (SSW) 1,449 -1.5 -6.5°
Sets 05:00:13 0° 168° (SSE) 2,303 -0.3 -6.2°
